(287387) = 2002 VS40

Discovered at Palomar on 2002-11-01 by NEAT.

Orbit

Orbit type: Main Belt

Note: WebGL enabled browser required.

epoch2023-02-25.0
epoch JD2460000.5
perihelion date2021-07-12.83490
perihelion JD2459408.33490
argument of perihelion (°)166.34139
ascending node (°)269.71718
inclination (°)6.66817
eccentricity0.0655870
perihelion distance (AU)2.5825030
Tisserand w.r.t. Jupiter3.3
ΔV w.r.t. Earth (km/sec)10.2
semimajor axis (AU)2.7637705
mean anomaly (°)127.02631
mean daily motion (°/day)0.21451160
aphelion distance (AU)2.945
period (years)4.59
P-vector [x]0.23933245
P-vector [y]0.87955560
P-vector [z]0.41122004
Q-vector [x]-0.96396924
Q-vector [y]0.26590224
Q-vector [z]-0.00770070
absolute magnitude16.16
phase slope0.15
uncertainty0
referenceMPO 745323
observations used409
oppositions15
arc length (days)8023
first opposition used2001
last opposition used2023
residual rms (arc-secs)0.72
perturbers coarse indicatorM-v
perturbers precise indicator003Ek
first observation date used2001-06-27.0
last observation date used2023-06-15.0
computer nameMPCLINUX
JD of orbit computation2456877.830897
perihelion JD uncertainty (days)2.5338E-04
argument of perihelion uncertainty (°)7.3908E-05
ascending node uncertainty (°)5.3202E-05
inclination uncertainty (°)6.2345E-06
eccentricity uncertainty 6.1382E-08
perihelion distance uncertainty (AU)1.6047E-07
Minimum Orbit Intersection Distances (in AU)
for orbit epoch: 2460000.5, reference: E2023-M09
Mercury2.27508
Venus1.86237
Earth1.59728
Mars1.00327
Jupiter2.2419
Saturn6.47248
Uranus15.6905
Neptune27.2076

Observations

424 total observations over interval: 2001 06 27.40011 – 2023 06 15.300545
These data are available for download (format description).

Date (UT) J2000 RA J2000 Dec Magn Location Ref
2001 06 27.40011 20 52 57.46 -12 32 26.7 21.6 V 691 – Steward Observatory, Kitt Peak-Spacewatch MPS 134823
2001 06 27.42191 20 52 56.77 -12 32 25.3 21.8 V 691 – Steward Observatory, Kitt Peak-Spacewatch MPS 134823
2001 06 27.44379 20 52 56.10 -12 32 24.3 22.1 V 691 – Steward Observatory, Kitt Peak-Spacewatch MPS 134823
2002 11 01.40167 03 17 21.54 +25 35 24.6 20.1   644 – Palomar Mountain/NEAT MPS 66426
2002 11 01.42854 03 17 20.07 +25 35 17.4 19.7   644 – Palomar Mountain/NEAT MPS 66426
2002 11 01.44981 03 17 18.95 +25 35 11.7 20.7   644 – Palomar Mountain/NEAT MPS 66426
2002 11 05.22281 03 13 58.37 +25 17 43.8 19.6   644 – Palomar Mountain/NEAT MPS 66426
2002 11 05.28567 03 13 54.84 +25 17 25.8 19.6   644 – Palomar Mountain/NEAT MPS 66426
2002 11 05.36800 03 13 50.24 +25 17 01.8 19.5   644 – Palomar Mountain/NEAT MPS 66426
2002 11 08.24854 03 11 12.17 +25 02 23.2 18.9   704 – Lincoln Laboratory ETS, New Mexico MPS 68222
2002 11 08.28342 03 11 10.18 +25 02 12.4 19.8   704 – Lincoln Laboratory ETS, New Mexico MPS 68222
2002 11 08.30074 03 11 09.23 +25 02 08.2 19.3   704 – Lincoln Laboratory ETS, New Mexico MPS 68222
2002 11 12.26329 03 07 28.97 +24 40 18.2 19.6   704 – Lincoln Laboratory ETS, New Mexico MPS 66426
2002 11 12.28059 03 07 27.95 +24 40 13.3 19.3   704 – Lincoln Laboratory ETS, New Mexico MPS 66426
2002 11 12.29789 03 07 26.91 +24 40 07.3 19.3   704 – Lincoln Laboratory ETS, New Mexico MPS 66426
2002 11 12.31521 03 07 25.95 +24 40 00.7 19.4   704 – Lincoln Laboratory ETS, New Mexico MPS 66426
2002 11 23.18873 02 57 41.80 +23 33 30.1 19.4   644 – Palomar Mountain/NEAT MPS 68222
2002 11 23.25113 02 57 38.53 +23 33 06.5 19.5   644 – Palomar Mountain/NEAT MPS 68222
2002 11 23.31407 02 57 35.23 +23 32 42.4 19.2   644 – Palomar Mountain/NEAT MPS 68222
2002 11 28.17279 02 53 41.87 +23 01 31.1 19.3 R 699 – Lowell Observatory-LONEOS MPS 68222
2002 11 28.18900 02 53 41.07 +23 01 23.7   699 – Lowell Observatory-LONEOS MPS 68222
2002 11 28.20504 02 53 40.31 +23 01 18.0   699 – Lowell Observatory-LONEOS MPS 68222
2002 11 28.22111 02 53 39.54 +23 01 11.1   699 – Lowell Observatory-LONEOS MPS 68222
2002 12 06.21907 02 48 15.86 +22 10 48.0 19.6   704 – Lincoln Laboratory ETS, New Mexico MPS 68222
2002 12 06.23444 02 48 15.24 +22 10 42.2 19.7   704 – Lincoln Laboratory ETS, New Mexico MPS 68222
2002 12 06.24988 02 48 14.71 +22 10 35.0 19.7   704 – Lincoln Laboratory ETS, New Mexico MPS 68222
2002 12 06.26524 02 48 14.13 +22 10 29.7 20.1   704 – Lincoln Laboratory ETS, New Mexico MPS 68222
2002 12 06.28069 02 48 13.57 +22 10 25.1 19.7   704 – Lincoln Laboratory ETS, New Mexico MPS 68222
2002 12 11.19856 02 45 41.34 +21 41 21.7 20.1   644 – Palomar Mountain/NEAT MPS 68222
2002 12 11.21971 02 45 40.72 +21 41 14.3 20.2   644 – Palomar Mountain/NEAT MPS 68222
2002 12 11.24090 02 45 40.09 +21 41 06.9 20.3   644 – Palomar Mountain/NEAT MPS 68222
2004 02 19.31070 10 54 25.22 -03 28 15.5 19.4   704 – Lincoln Laboratory ETS, New Mexico MPS 134823
2004 02 19.33466 10 54 23.99 -03 28 11.2 19.0   704 – Lincoln Laboratory ETS, New Mexico MPS 134823
2004 02 19.34643 10 54 23.39 -03 28 10.2 18.8   704 – Lincoln Laboratory ETS, New Mexico MPS 134823
2004 03 16.23810 10 32 58.84 -01 35 33.0 19.6   704 – Lincoln Laboratory ETS, New Mexico MPS 134823
2004 03 16.26449 10 32 57.62 -01 35 24.0 19.7   704 – Lincoln Laboratory ETS, New Mexico MPS 134823
2004 03 16.27589 10 32 57.03 -01 35 20.5 19.9   704 – Lincoln Laboratory ETS, New Mexico MPS 134823
2006 09 18.16860 22 42 06.19 +02 43 35.1 20.9 V 703 – Catalina Sky Survey MPS 179253
2006 09 18.17703 22 42 05.83 +02 43 31.1 20.1 V 703 – Catalina Sky Survey MPS 179253
2006 09 18.18542 22 42 05.43 +02 43 29.4 20.6 V 703 – Catalina Sky Survey MPS 179253
2006 09 18.19380 22 42 05.14 +02 43 28.1 19.8 V 703 – Catalina Sky Survey MPS 179253
2006 11 09.17042 22 30 16.04 -00 27 34.9 20.2 r 705 – Apache Point MPS 387186
2006 11 09.17125 22 30 16.07 -00 27 34.9   705 – Apache Point MPS 387186
2006 11 09.17374 22 30 16.11 -00 27 35.0   705 – Apache Point MPS 387186
2007 12 03.37818 07 00 25.25 +22 22 30.5 19.5 V 691 – Steward Observatory, Kitt Peak-Spacewatch MPS 229740
2007 12 03.39328 07 00 24.68 +22 22 29.6 19.8 V 691 – Steward Observatory, Kitt Peak-Spacewatch MPS 229740
2007 12 03.40837 07 00 24.15 +22 22 27.8 19.8 V 691 – Steward Observatory, Kitt Peak-Spacewatch MPS 229740
2010 04 12.563167 19 35 42.56 -21 19 51.6   C51 – WISE MPS 340682
2010 04 12.695470 19 35 49.02 -21 19 24.8   C51 – WISE MPS 340682
2010 04 12.827774 19 35 55.34 -21 18 59.5   C51 – WISE MPS 340682
2010 04 12.960079 19 36 01.73 -21 18 32.7   C51 – WISE MPS 340682
2010 04 12.960206 19 36 01.70 -21 18 32.5   C51 – WISE MPS 340682
2010 04 13.092510 19 36 08.02 -21 18 06.4   C51 – WISE MPS 340682
2010 04 13.158598 19 36 11.20 -21 17 52.8   C51 – WISE MPS 340682
2010 04 13.555510 19 36 30.05 -21 16 34.9   C51 – WISE MPS 340682
2010 04 13.687815 19 36 36.37 -21 16 08.0   C51 – WISE MPS 340682
2010 04 13.687942 19 36 36.35 -21 16 06.9   C51 – WISE MPS 340682
2010 04 13.820119 19 36 42.64 -21 15 39.7   C51 – WISE MPS 340682
2010 04 13.820247 19 36 42.57 -21 15 38.5   C51 – WISE MPS 340682
2011 09 24.23367 01 58 16.89 +21 55 23.1 19.1   704 – Lincoln Laboratory ETS, New Mexico MPS 394144
2011 09 24.24657 01 58 16.58 +21 55 23.9 20.0   704 – Lincoln Laboratory ETS, New Mexico MPS 394144
2011 09 24.25945 01 58 16.12 +21 55 21.1 19.9   704 – Lincoln Laboratory ETS, New Mexico MPS 394144
2011 09 24.28529 01 58 15.23 +21 55 19.3 20.0   704 – Lincoln Laboratory ETS, New Mexico MPS 394144
2011 10 01.34274 01 54 04.30 +21 41 43.2   691 – Steward Observatory, Kitt Peak-Spacewatch MPS 394964
2011 10 01.36053 01 54 03.55 +21 41 40.6   691 – Steward Observatory, Kitt Peak-Spacewatch MPS 394964
2011 10 01.37833 01 54 02.79 +21 41 37.4   691 – Steward Observatory, Kitt Peak-Spacewatch MPS 394964
2011 10 21.30777 01 38 11.76 +20 13 51.1 19.3 V G96 – Mt. Lemmon Survey MPS 396152
2011 10 21.31522 01 38 11.32 +20 13 48.5 19.3 V G96 – Mt. Lemmon Survey MPS 396152
2011 10 21.32126 01 38 11.286 +20 13 47.19 19.5 w F51 – Pan-STARRS 1, Haleakala MPS 398040
2011 10 21.32280 01 38 10.93 +20 13 45.7 19.2 V G96 – Mt. Lemmon Survey MPS 396152
2011 10 21.33038 01 38 10.53 +20 13 42.9 19.3 V G96 – Mt. Lemmon Survey MPS 396152
2011 10 21.33508 01 38 10.558 +20 13 42.04 19.4 w F51 – Pan-STARRS 1, Haleakala MPS 398040
2011 10 21.34891 01 38 09.800 +20 13 37.42 19.6 w F51 – Pan-STARRS 1, Haleakala MPS 398040
2011 10 22.32059 01 37 19.44 +20 07 46.1 19.3   704 – Lincoln Laboratory ETS, New Mexico MPS 398040
2011 10 22.33266 01 37 18.76 +20 07 40.8 19.7   704 – Lincoln Laboratory ETS, New Mexico MPS 398040
2011 10 22.34461 01 37 18.11 +20 07 36.2 19.7   704 – Lincoln Laboratory ETS, New Mexico MPS 398040
2011 10 22.35670 01 37 17.47 +20 07 32.5 19.3   704 – Lincoln Laboratory ETS, New Mexico MPS 398040
2011 10 22.36862 01 37 16.84 +20 07 28.9 19.5   704 – Lincoln Laboratory ETS, New Mexico MPS 398040
2011 10 28.23642 01 32 18.85 +19 30 03.4 19.4 V 703 – Catalina Sky Survey MPS 399871
2011 10 28.24553 01 32 18.38 +19 29 58.4 18.8 V 703 – Catalina Sky Survey MPS 399871
2011 10 28.25469 01 32 17.95 +19 29 55.8 19.2 V 703 – Catalina Sky Survey MPS 399871
2011 10 28.26390 01 32 17.52 +19 29 50.5 19.2 V 703 – Catalina Sky Survey MPS 399871
2011 11 01.25328 01 29 04.09 +19 02 55.2 19.1   704 – Lincoln Laboratory ETS, New Mexico MPS 399871
2011 11 01.26548 01 29 03.44 +19 02 49.5 19.1   704 – Lincoln Laboratory ETS, New Mexico MPS 399871
2011 11 01.27775 01 29 02.90 +19 02 45.1 19.8   704 – Lincoln Laboratory ETS, New Mexico MPS 399871
2011 11 01.29017 01 29 02.22 +19 02 40.4 19.3   704 – Lincoln Laboratory ETS, New Mexico MPS 399871
2011 11 01.30237 01 29 01.63 +19 02 34.5 19.3   704 – Lincoln Laboratory ETS, New Mexico MPS 399871
2013 02 07.31032 09 38 34.22 +05 13 59.7 19.6 V 703 – Catalina Sky Survey MPS 456080
2013 02 07.31599 09 38 33.93 +05 14 01.0 19.4 V 703 – Catalina Sky Survey MPS 456080
2013 02 07.32166 09 38 33.54 +05 14 03.3 19.6 V 703 – Catalina Sky Survey MPS 456080
2013 02 07.32728 09 38 33.28 +05 14 03.9 19.2 V 703 – Catalina Sky Survey MPS 456080
